This is the latest recevied weather packets stored in our database for station/object XW7RMR. If no packets are shown the sender has not sent any weather packets the latest 10 day(s).
| Time | Temp. | Humidity | Pressure | Rain* | Wind** | Luminosity | Snow |
|---|---|---|---|---|---|---|---|
| 1777052419 | 13.89° C | 56% | 1016.9 hPa | 0 mm | - | 605 W/m² | - |
| 1777052116 | 13.89° C | 55% | 1016.7 hPa | 0 mm | - | 592 W/m² | - |
| 1777051815 | 13.89° C | 56% | 1016.9 hPa | 0 mm | - | 577 W/m² | - |
| 1777051515 | 13.89° C | 56% | 1016.9 hPa | 0 mm | - | 566 W/m² | - |
| 1777051210 | 14.44° C | 56% | 1017 hPa | 0 mm | - | 553 W/m² | - |
| 1777050906 | 13.89° C | 58% | 1016.8 hPa | 0 mm | - | 540 W/m² | - |
| 1777050603 | 13.33° C | 58% | 1016.9 hPa | 0 mm | - | 525 W/m² | - |
| 1777050302 | 13.33° C | 59% | 1016.9 hPa | 0 mm | - | 510 W/m² | - |
| 1777049997 | 13.33° C | 59% | 1016.7 hPa | 0 mm | - | 502 W/m² | - |
| 1777049696 | 12.78° C | 63% | 1017 hPa | 0 mm | - | 486 W/m² | - |
| 1777049394 | 12.78° C | 63% | 1017.3 hPa | 0 mm | - | 472 W/m² | - |
| 1777049091 | 13.33° C | 63% | 1017.1 hPa | 0 mm | - | 456 W/m² | - |
| 1777048787 | 12.78° C | 65% | 1017.1 hPa | 0 mm | - | 441 W/m² | - |
| 1777048482 | 12.22° C | 67% | 1017.2 hPa | 0 mm | - | 429 W/m² | - |
| 1777048181 | 11.67° C | 69% | 1017.2 hPa | 0 mm | - | 413 W/m² | - |
| 1777047877 | 11.67° C | 69% | 1017.2 hPa | 0 mm | - | 399 W/m² | - |
| 1777047573 | 11.67° C | 69% | 1017.2 hPa | 0 mm | - | 383 W/m² | - |
| 1777047269 | 11.67° C | 69% | 1017.4 hPa | 0 mm | - | 370 W/m² | - |
| 1777046966 | 11.67° C | 70% | 1017.4 hPa | 0 mm | - | 353 W/m² | - |
| 1777046662 | 11.11° C | 70% | 1017.4 hPa | 0 mm | - | 336 W/m² | - |
| 1777046357 | 11.11° C | 71% | 1017.4 hPa | 0 mm | - | 319 W/m² | - |
| 1777046053 | 11.11° C | 72% | 1017.4 hPa | 0 mm | - | 304 W/m² | - |
| 1777045749 | 11.11° C | 73% | 1017.5 hPa | 0 mm | - | 287 W/m² | - |
| 1777045445 | 11.11° C | 73% | 1017.7 hPa | 0 mm | - | 272 W/m² | - |
| 1777045140 | 10.56° C | 73% | 1017.6 hPa | 0 mm | - | 257 W/m² | - |
* Rain latest hour (hover to see other rain measurements)
** Current wind speed in m/s (hover to see current wind gust speed)